Location: Newark
(30.0333°N, 31.2167°E)
Time: 04:10:05
(UTC+00:00)

Tiros 1 despin weight - Pass Details

Date: 24 January 2020
Orbit: 594 x 642 km, 48.2° (Epoch: 17 February)

Event Time Altitude Azimuth Distance (km) Brightness Sun altitude
Rises 09:23:03 0° 252° (WSW) 2,844 ? 39.6°
Reaches altitude 10° 09:25:31 10° 261° (W) 1,950 ? 39.7°
Maximum altitude 09:29:34 33° 326° (NNW) 1,036 ? 39.9°
Drops below altitude 10° 09:33:42 10° 31° (NNE) 1,984 ? 40.0°
Sets 09:36:13 0° 41° (NE) 2,901 ? 40.1°
